Plato, MN

7:26 AM CST on January 17, 2017 (GMT -0600)
Glencoe Municipal

Weather History for KGYL - January, 2013

Change the Weather History Date:

Thursday, January 10, 2013

  Actual Average (KHCD) Record (KHCD)
Temperature  
Mean Temperature 33 °F -  
Max Temperature 38 °F 18 °F 54 °F (2012)
Min Temperature 28 °F 0 °F -29 °F (1982)
Degree Days  
Heating Degree Days 32    
Moisture  
Dew Point 27 °F    
Average Humidity 78    
Maximum Humidity 98    
Minimum Humidity 58    
Precipitation  
Precipitation 0.13 in - - ()
Sea Level Pressure  
Sea Level Pressure 30.04 in    
Wind  
Wind Speed 7 mph (SSE)    
Max Wind Speed 14 mph    
Max Gust Speed 17 mph    
Visibility 8 miles    
Events Rain    
Averages and records for this station are not official NWS values.
T = Trace of Precipitation, MM = Missing Value Source: NWS Daily Summary

Daily Weather History Graph

Daily Weather History Graph

Search for Another Location

Airport or City:

Trip Planner

Search our weather history database for the weather conditions in past years. The results will help you decide how hot, cold, wet, or windy it might be!

Date:

Astronomy

Jan. 10, 2013 Rise Set
Actual Time 7:52 AM CST 4:56 PM CST
Civil Twilight 7:19 AM CST 5:28 PM CST
Nautical Twilight 6:42 AM CST 6:05 PM CST
Astronomical Twilight 6:07 AM CST 6:40 PM CST
Moon 6:32 AM CST (1/10) 4:05 PM CST (1/10)
Length of Visible Light 10h 09m
Length of Day
9h 03m
Waning Crescent, 2% of the Moon is Illuminated
Jan 10
Waning Crescent
Jan 11
New
Jan 18
First Quarter
Jan 26
Full
Feb 3
Last Quarter

Hourly Weather History & Observations

Time (CST) Temp. Windchill Dew Point Humidity Pressure Visibility Wind Dir Wind Speed Gust Speed Precip Events Conditions
12:05 AM 28.4 °F 19.7 °F 24.8 °F 86% 30.25 in 10.0 mi South 9.2 mph - N/A   Clear
12:25 AM 30.2 °F 21.9 °F 24.8 °F 80% 30.25 in 10.0 mi South 9.2 mph - N/A   Clear
12:45 AM 30.2 °F 25.4 °F 26.6 °F 86% 30.25 in 10.0 mi South 4.6 mph - N/A   Clear
1:05 AM 30.2 °F 21.9 °F 26.6 °F 86% 30.25 in 10.0 mi South 9.2 mph - N/A   Clear
1:25 AM 32.0 °F 24.8 °F 26.6 °F 80% 30.25 in 10.0 mi South 8.1 mph - N/A   Clear
1:45 AM 32.0 °F 25.6 °F 26.6 °F 80% 30.25 in 10.0 mi South 6.9 mph - N/A   Clear
2:05 AM 32.0 °F 24.8 °F 26.6 °F 80% 30.24 in 10.0 mi South 8.1 mph - N/A   Clear
2:25 AM 32.0 °F 24.8 °F 26.6 °F 80% 30.24 in 10.0 mi South 8.1 mph - N/A   Clear
2:45 AM 32.0 °F 25.6 °F 26.6 °F 80% 30.24 in 10.0 mi South 6.9 mph - N/A   Clear
3:05 AM 32.0 °F 23.6 °F 26.6 °F 80% 30.24 in 10.0 mi South 10.4 mph - N/A   Clear
3:25 AM 32.0 °F 24.2 °F 26.6 °F 80% 30.24 in 10.0 mi South 9.2 mph 16.1 mph N/A   Clear
3:45 AM 33.8 °F 27.0 °F 26.6 °F 75% 30.24 in 10.0 mi South 8.1 mph 17.3 mph N/A   Clear
4:05 AM 32.0 °F 26.4 °F 26.6 °F 80% 30.22 in 10.0 mi South 5.8 mph - N/A   Clear
4:25 AM 32.0 °F 25.6 °F 26.6 °F 80% 30.22 in 10.0 mi South 6.9 mph 17.3 mph N/A   Clear
4:45 AM 32.0 °F 26.4 °F 24.8 °F 75% 30.21 in 10.0 mi South 5.8 mph - N/A   Clear
5:05 AM 32.0 °F 25.6 °F 24.8 °F 75% 30.21 in 10.0 mi South 6.9 mph - N/A   Clear
5:25 AM 32.0 °F 26.4 °F 24.8 °F 75% 30.21 in 10.0 mi South 5.8 mph - N/A   Clear
5:45 AM 32.0 °F 26.4 °F 24.8 °F 75% 30.20 in 10.0 mi South 5.8 mph - N/A   Clear
6:05 AM 32.0 °F 26.4 °F 24.8 °F 75% 30.21 in 10.0 mi South 5.8 mph - N/A   Clear
6:25 AM 32.0 °F 28.7 °F 24.8 °F 75% 30.20 in 10.0 mi South 3.5 mph - N/A   Clear
6:45 AM 32.0 °F 28.7 °F 24.8 °F 75% 30.20 in 10.0 mi South 3.5 mph - N/A   Clear
7:05 AM 32.0 °F 24.2 °F 24.8 °F 75% 30.20 in 10.0 mi South 9.2 mph - N/A   Clear
7:25 AM 32.0 °F 27.5 °F 24.8 °F 75% 30.20 in 10.0 mi South 4.6 mph - N/A   Clear
7:45 AM 32.0 °F 24.8 °F 24.8 °F 75% 30.19 in 10.0 mi South 8.1 mph - N/A   Clear
8:05 AM 32.0 °F 25.6 °F 24.8 °F 75% 30.19 in 10.0 mi South 6.9 mph - N/A   Clear
8:25 AM 32.0 °F 27.5 °F 23.0 °F 69% 30.19 in 10.0 mi SSE 4.6 mph - N/A   Clear
8:45 AM 32.0 °F 24.8 °F 23.0 °F 69% 30.18 in 10.0 mi SSE 8.1 mph - N/A   Clear
9:05 AM 32.0 °F 24.2 °F 23.0 °F 69% 30.18 in 10.0 mi South 9.2 mph 17.3 mph N/A   Clear
9:25 AM 33.8 °F 30.8 °F 24.8 °F 70% 30.17 in 10.0 mi South 3.5 mph - N/A   Clear
9:45 AM 33.8 °F 29.6 °F 24.8 °F 70% 30.17 in 10.0 mi South 4.6 mph - N/A   Clear
10:11 AM 34.7 °F - 24.3 °F 66% 30.16 in 10.0 mi Calm Calm - N/A   Clear
10:16 AM 34.9 °F 29.0 °F 24.1 °F 65% 30.16 in 10.0 mi SSE 6.9 mph - N/A   Clear
10:36 AM 35.6 °F - 24.4 °F 64% 30.15 in 10.0 mi Calm Calm - N/A   Clear
10:56 AM 36.7 °F - 24.8 °F 62% 30.14 in 10.0 mi Calm Calm - N/A   Clear
11:16 AM 36.1 °F - 24.6 °F 63% 30.13 in 10.0 mi Calm Calm - N/A   Clear
11:36 AM 36.7 °F 34.1 °F 24.6 °F 62% 30.11 in 10.0 mi SSE 3.5 mph - N/A   Clear
11:55 AM 37.2 °F - 25.0 °F 61% 30.09 in 10.0 mi Calm Calm - N/A   Clear
12:16 PM 37.0 °F 30.4 °F 25.5 °F 63% 30.07 in 10.0 mi SE 9.2 mph - N/A   Clear
12:36 PM 37.4 °F - 25.7 °F 63% 30.06 in 10.0 mi Calm Calm - N/A   Clear
12:56 PM 37.9 °F 33.5 °F 24.8 °F 59% 30.03 in 10.0 mi SE 5.8 mph - N/A   Clear
1:16 PM 38.3 °F 33.2 °F 24.8 °F 58% 30.02 in 10.0 mi SE 6.9 mph - N/A   Clear
1:36 PM 37.6 °F - 25.0 °F 60% 30.00 in 10.0 mi Calm Calm - N/A   Clear
1:56 PM 37.9 °F - 24.4 °F 58% 29.99 in 10.0 mi Calm Calm - N/A   Clear
2:16 PM 37.0 °F 31.0 °F 26.2 °F 65% 29.99 in 10.0 mi ESE 8.1 mph - N/A   Scattered Clouds
2:36 PM 37.0 °F 31.6 °F 26.4 °F 65% 29.99 in 10.0 mi ESE 6.9 mph - N/A   Overcast
2:56 PM 37.4 °F 34.9 °F 26.1 °F 64% 29.98 in 10.0 mi ESE 3.5 mph - N/A   Overcast
3:16 PM 37.0 °F 29.8 °F 25.9 °F 64% 29.97 in 10.0 mi ESE 10.4 mph - N/A   Overcast
3:36 PM 36.3 °F 29.5 °F 27.3 °F 70% 29.96 in 10.0 mi ESE 9.2 mph - N/A   Overcast
3:56 PM 37.6 °F 30.0 °F 23.9 °F 58% 29.95 in 10.0 mi ESE 11.5 mph - N/A   Overcast
4:16 PM 36.7 °F 29.4 °F 26.2 °F 66% 29.94 in 10.0 mi ESE 10.4 mph - N/A   Overcast
4:36 PM 36.1 °F 27.7 °F 26.2 °F 67% 29.92 in 7.0 mi ESE 12.7 mph - N/A Rain Light Rain
4:56 PM 35.2 °F 26.6 °F 28.2 °F 76% 29.90 in 5.0 mi ESE 12.7 mph - 0.01 in Rain Light Rain
5:16 PM 34.3 °F 25.5 °F 29.1 °F 81% 29.90 in 7.0 mi ESE 12.7 mph - 0.01 in Rain Rain
5:36 PM 34.0 °F 25.0 °F 29.8 °F 85% 29.89 in 5.0 mi ESE 12.7 mph - 0.03 in Rain Light Rain
5:56 PM 33.8 °F 24.8 °F 30.2 °F 87% 29.87 in 7.0 mi ESE 12.7 mph - 0.04 in Rain Light Rain
6:16 PM 33.3 °F 24.1 °F 30.9 °F 91% 29.86 in 4.0 mi ESE 12.7 mph - 0.02 in Rain Rain
6:36 PM 32.9 °F 23.7 °F 31.6 °F 95% 29.85 in 4.0 mi ESE 12.7 mph - 0.06 in Rain Light Rain
6:56 PM 32.9 °F 23.2 °F 31.6 °F 95% 29.84 in 5.0 mi ESE 13.8 mph - 0.07 in   Light Drizzle
7:15 PM 32.9 °F 23.7 °F 31.6 °F 95% 29.82 in 7.0 mi ESE 12.7 mph - N/A   Overcast
7:36 PM 32.9 °F 23.2 °F 31.6 °F 95% 29.81 in 10.0 mi ESE 13.8 mph - N/A   Overcast
7:56 PM 32.9 °F 24.7 °F 31.6 °F 95% 29.81 in 4.0 mi ESE 10.4 mph - 0.01 in Rain Rain
8:16 PM 32.7 °F 23.9 °F 31.6 °F 96% 29.79 in 10.0 mi ESE 11.5 mph - N/A   Overcast
8:36 PM 32.5 °F 24.8 °F 31.8 °F 97% 29.77 in 5.0 mi ESE 9.2 mph - N/A   Overcast
8:56 PM 32.7 °F 25.0 °F 32.0 °F 97% 29.76 in 4.0 mi ESE 9.2 mph - N/A   Overcast
9:16 PM 32.9 °F 25.9 °F 32.0 °F 96% 29.75 in 5.0 mi SE 8.1 mph - N/A   Overcast
9:36 PM 33.1 °F 26.9 °F 32.0 °F 96% 29.74 in 7.0 mi SE 6.9 mph - N/A   Overcast
9:56 PM 33.3 °F 27.1 °F 32.2 °F 96% 29.74 in 4.0 mi SSE 6.9 mph - N/A   Overcast
10:15 PM 33.4 °F 27.3 °F 32.5 °F 96% 29.73 in 2.0 mi SSE 6.9 mph - N/A   Overcast
10:36 PM 33.4 °F 27.3 °F 32.9 °F 98% 29.72 in 1.5 mi SE 6.9 mph - N/A   Overcast
10:56 PM 33.4 °F 27.3 °F 32.9 °F 98% 29.71 in 1.2 mi SSE 6.9 mph - N/A   Overcast
11:15 PM 33.6 °F 28.4 °F 32.9 °F 97% 29.70 in 1.2 mi SSE 5.8 mph - N/A   Overcast
11:56 PM 33.8 °F 27.0 °F 33.1 °F 97% 29.70 in 1.2 mi SSE 8.1 mph - N/A   Overcast